Powrót do katalogu

STARLINK-35089

AktywnyŁącznośćVLEO
NORAD 65484·PAYLOAD·🇺🇸 United States

Wystrzelony Sep 3, 2025 z Cape Canaveral Space Force Station

Loading…

Następne Przeloty (najbliższe 24 godziny)

TLE

ŚwieżeSource: CelesTrak SupGP

Epoka: Sep 14, 2026, 14:04 UTC

1 65484C 25195AC  26257.58659722  .00011812  00000+0  34894-3 0  2575
2 65484  53.1582  96.9983 0001122  95.6029  43.8270 15.34389957    13

Śledź STARLINK-35089 w czasie rzeczywistym z AllMySat

Download on the App Store